{"data":{"norad_id":63507,"epoch":"2026-05-25T00:03:15.268320Z","epoch_age_seconds":68049,"freshness":"FRESH","line1":"1 63507U 25071Q   26145.00226005  .00013219  00000+0  45755-3 0  9993","line2":"2 63507  53.1585 145.4233 0001210  90.8071 269.3068 15.30206072 64438","mean_motion":15.30206072,"eccentricity":0.000121,"inclination_deg":53.1585,"raan_deg":145.4233,"arg_perigee_deg":90.8071,"mean_anomaly_deg":269.3068,"bstar":0.00045755,"rev_number":6443,"period_min":94.10497228768,"perigee_km":474.36768617507,"apogee_km":476.02619298845,"semimajor_km":6853.3339395818,"source":"CELESTRAK","updated_at":"2026-05-25T13:38:20.014573Z"}}